Вернуться в каталог

STARLINK-4789

АктивенСвязьVLEO
NORAD 53868·PAYLOAD·🇺🇸 United States

Запущен Sep 19, 2022 с Cape Canaveral Space Force Station

Loading…

Ближайшие Пролёты (ближайшие 24 часа)

TLE

СвежийSource: CelesTrak SupGP

Эпоха: Sep 15, 2026, 02:43 UTC

1 53868C 22114BC  26258.11368056  .00032126  00000+0  91957-3 0  2588
2 53868  53.1570 118.9882 0001199  80.2620 175.6534 15.35368550    11

Отслеживайте STARLINK-4789 в реальном времени с AllMySat

Download on the App Store